Flag for U.S.A. Weather past 2 weeks in Columbus, Georgia, U.S.A.

Now
67 °F

Sunny.


Feels Like: 67 °F
Forecast: 57 / 81 °F
Wind: 6 mph from Northeast

Location: Columbus Metropolitan Airport


UV Index: 7 (High)

Visibility: 10 mi


Pressure: 29.95 "Hg

Humidity: 63%

Dew point: 54 °F

Location of ColumbusLocation

Historic Weather in Columbus

°F

Columbus temperature yesterday

Maximum temperature yesterday: 77 °F (at 1:51 PM)
Minimum temperature yesterday: 54 °F (at 5:51 AM)
Average temperature yesterday: 65 °F

Past Weeks' High & Low Weather Summary

 TemperatureHumidityPressure
High81 °F (Apr 12, 5:51 PM)100% (Apr 14, 11:59 PM)30.39 "Hg (Apr 14, 11:59 PM)
Low37 °F (Apr 16, 5:51 AM)22% (Apr 10, 4:51 PM)29.70 "Hg (Apr 15, 7:51 AM)
Average61 °F65%30.07 "Hg
* Reported Apr 8 8:51 AM — Apr 23 8:51 AM, Columbus, Weather by CustomWeather, © 2014

Note: Actual official high and low records may vary slightly from our data, if they occured in-between our weather recording intervals... More about our weather records

Advertising

Historic Weather Conditions — Data for Previous 24 hours

 ConditionsComfort  
Time TempWeatherWind HumidityBarometerVisibility
8:51 AM
Apr 23
63 °FSunny.3 mph84%29.94 "Hg7 mi
8:03 AM59 °FFog.3 mph94%29.94 "Hg4 mi
7:03 AM59 °FFog.3 mph94%29.91 "Hg2 mi
6:59 AM59 °FFog.3 mph94%29.91 "Hg4 mi
5:51 AM58 °FFog.No wind97%29.88 "Hg4 mi
4:51 AM58 °FFog.No wind97%29.86 "Hg4 mi
3:51 AM59 °FFog.No wind93%29.85 "Hg4 mi
2:51 AM60 °FFog.No wind93%29.85 "Hg5 mi
1:51 AM61 °FFog.No wind90%29.87 "Hg6 mi
12:51 AM61 °FFog.No wind90%29.87 "Hg6 mi
11:51 PM
Apr 22
64 °FClear.3 mph84%29.88 "Hg9 mi
10:51 PM65 °FClear.5 mph81%29.88 "Hg9 mi
9:51 PM67 °FPassing clouds.6 mph79%29.87 "Hg9 mi
8:51 PM67 °FMostly cloudy.5 mph90%29.85 "Hg7 mi
7:51 PM69 °FPartly sunny.5 mph76%29.85 "Hg8 mi
6:51 PM70 °FPartly sunny.No wind73%29.84 "Hg9 mi
5:51 PM70 °FBroken clouds.5 mph79%29.85 "Hg6 mi
4:51 PM70 °FLight rain. Fog.5 mph81%29.85 "Hg7 mi
4:03 PM70 °FFog.No wind83%29.87 "Hg6 mi
3:51 PM68 °FThunderstorms. Fog.6 mph87%29.87 "Hg6 mi
2:51 PM75 °FMore clouds than sun.12 mph55%29.86 "Hg10 mi
1:51 PM77 °FPartly sunny.13 mph52%29.87 "Hg10 mi
12:51 PM75 °FPartly sunny.15 mph54%29.89 "Hg10 mi
11:51 AM76 °FPassing clouds.12 mph54%29.92 "Hg10 mi
10:51 AM72 °FSunny.6 mph64%29.92 "Hg10 mi
Weather by CustomWeather, © 2014

See weather overview